BEESAT-8

Last updated on Thu Nov 21 2024 00:03:40 GMT+0000 (Coordinated Universal Time)

1 48085U 21022AP 24324.69082884 .00129852 00000+0 18691-2 0 9995 2 48085 97.4702 230.2109 0002668 340.2147 19.9003 15.55591463201825
UTC large
Height (km)
Speed (km/s)
/
Latitude / Longitude
Inclination (degrees)
Orbital Period (minutes)
Azimuth
Elevation
Range (km)
Doppler Factor

Next 0 passes for location: London (51.5072 / 0.1276)

Sorry there are no passes over London.